{"data":{"norad_id":65795,"intl_designator":"2025-218E","name":"STARLINK-35406","alt_names":[],"object_type":"PAYLOAD","status":"ACTIVE","operator":null,"country":"US","launch_date":"2025-09-26","launch_site_code":"AFWTR","launch_vehicle":null,"mission":null,"orbit_class":"UNKNOWN","rcs_meters":null,"size_class":null,"mass_kg":null,"dimensions":null,"purposes":["comms"],"wikipedia_slug":null,"has_3d_model":false,"image_url":null,"decayed_at":null,"tle_current":{"epoch":"2026-09-20T12:51:05.315616Z","epoch_age_seconds":103088,"freshness":"FRESH","line1":"1 65795U 25218E   26263.53547819  .00012867  00000+0  40012-3 0  9994","line2":"2 65795  97.2851 120.9760 0001096  96.9960 263.1407 15.33450736 54342","mean_motion":15.33450736,"eccentricity":0.0001096,"inclination_deg":97.2851,"raan_deg":120.976,"arg_perigee_deg":96.996,"mean_anomaly_deg":263.1407,"bstar":0.00040012,"rev_number":5434,"period_min":93.905853392867,"perigee_km":464.77604275429,"apogee_km":466.27617370761,"semimajor_km":6843.6631082309,"source":"CELESTRAK","updated_at":"2026-09-21T09:00:35.714074Z"}}}